Flag for Sweden Weather past 2 weeks in Örebro, Sweden

Now
61 °F

Refreshingly cool.


Feels Like: 61 °F
Forecast: 46 / 58 °F
Wind: 15 mph from Southwest

Location: Orebro Private

Current Time: May 24, 2015 at 2:22:20 PM

Latest Report: May 24, 2015 at 1:50 PM


Visibility: N/A

Pressure: 29.92 "Hg

Humidity: 42%

Dew point: 37 °F

Location of ÖrebroLocation

Historic Weather in Örebro — Graph

°F

Örebro temperature yesterday

Maximum temperature yesterday: 63 °F (at 3:50 PM)
Minimum temperature yesterday: 45 °F (at 4:20 AM)
Average temperature yesterday: 54 °F

Past Weeks' High & Low Weather Summary

 TemperatureHumidityPressure
High64 °F (May 11, 5:20 PM)100% (May 10, 6:50 AM)30.18 "Hg (May 10, 6:50 AM)
Low34 °F (May 16, 3:20 AM)29% (May 9, 3:50 PM)29.47 "Hg (May 13, 1:50 AM)
Average50 °F75%29.83 "Hg
* Reported May 9 1:20 PM — May 24 1:20 PM, Örebro, Weather by CustomWeather, © 2015

Note: Actual official high and low records may vary slightly from our data, if they occured in-between our weather recording intervals... More about our weather records

Advertising

Örebro weather history for previous 24 hours

 ConditionsComfort  
Time TempWeatherWind HumidityBarometerVisibility
1:20 PM
Sun, May 24
61 °FRefreshingly cool.12 mph48%29.92 "HgN/A
12:50 PM59 °FRefreshingly cool.12 mph51%29.92 "HgN/A
12:20 PM59 °FRefreshingly cool.12 mph59%29.92 "HgN/A
11:50 AM57 °FRefreshingly cool.12 mph59%29.92 "HgN/A
11:20 AM57 °FCool.13 mph67%29.92 "HgN/A
10:50 AM55 °FCool.10 mph67%29.95 "HgN/A
10:20 AM54 °FPassing clouds.10 mph77%29.95 "HgN/A
9:50 AM52 °FPassing clouds.9 mph77%29.92 "HgN/A
9:20 AM52 °FScattered clouds.6 mph72%29.92 "HgN/A
8:50 AM50 °FPartly sunny.8 mph82%29.95 "HgN/A
8:20 AM48 °FOvercast.6 mph82%29.95 "HgN/A
7:50 AM48 °FPartly sunny.6 mph82%29.95 "HgN/A
7:20 AM46 °FPartly sunny.8 mph87%29.92 "HgN/A
6:50 AM46 °FLow clouds.8 mph87%29.92 "HgN/A
6:20 AM45 °FPartly sunny.7 mph87%29.92 "HgN/A
5:50 AM45 °FQuite cool.7 mph81%29.92 "HgN/A
5:20 AM43 °FQuite cool.7 mph87%29.92 "HgN/A
4:50 AM41 °FQuite cool.8 mph87%29.92 "HgN/A
4:20 AM39 °FChilly.9 mph87%29.92 "HgN/A
3:50 AM43 °FQuite cool.9 mph81%29.92 "HgN/A
3:20 AM43 °FQuite cool.8 mph81%29.92 "HgN/A
2:50 AM45 °FQuite cool.7 mph81%29.92 "HgN/A
2:20 AM46 °FCool.7 mph76%29.92 "HgN/A
1:50 AM48 °FCool.9 mph71%29.92 "HgN/A
1:20 AM48 °FCool.8 mph71%29.95 "HgN/A
12:50 AM50 °FCool.9 mph67%29.95 "HgN/A
12:20 AM50 °FCool.9 mph67%29.95 "HgN/A
11:50 PM
Sat, May 23
52 °FCool.12 mph62%29.92 "HgN/A
11:20 PM52 °FCool.12 mph62%29.92 "HgN/A
10:50 PM54 °FPassing clouds.9 mph58%29.92 "HgN/A
10:20 PM54 °FPartly sunny.9 mph58%29.92 "HgN/A
9:50 PM52 °FScattered clouds.7 mph62%29.92 "HgN/A
9:20 PM55 °FPassing clouds.7 mph51%29.92 "HgN/A
8:50 PM57 °FRefreshingly cool.8 mph48%29.92 "HgN/A
8:20 PM59 °FRefreshingly cool.9 mph45%29.92 "HgN/A
7:50 PM61 °FPassing clouds.12 mph39%29.92 "HgN/A
7:20 PM61 °FRefreshingly cool.6 mph39%29.89 "HgN/A
6:50 PM63 °FPassing clouds.8 mph32%29.92 "HgN/A
6:20 PM61 °FPartly sunny.10 mph34%29.92 "HgN/A
5:50 PM61 °FPartly sunny.10 mph36%29.92 "HgN/A
5:20 PM63 °FPassing clouds.10 mph32%29.92 "HgN/A
4:50 PM63 °FPassing clouds.13 mph32%29.92 "HgN/A
4:20 PM61 °FRefreshingly cool.12 mph31%29.89 "HgN/A
3:50 PM63 °FMild.14 mph30%29.92 "HgN/A
3:20 PM61 °FPassing clouds.13 mph34%29.89 "HgN/A
2:50 PM61 °FRefreshingly cool.14 mph34%29.89 "HgN/A
2:20 PM61 °FPassing clouds.15 mph39%29.89 "HgN/A
Weather by CustomWeather, © 2015

See weather overviewHow to use our weather pages